Terminal Aerodrome Forecast
Issued by NWS

Home | Current Version | Previous Version | Text Only | Print | Product List | Glossary On
Versions: 1 2 3 4 5 6 7 8 9 10 11 12 13 14 15 16 17 18 19 20 21 22 23 24 25 26 27 28 29 30 31 32
000
FTUS44 KOUN 210528
TAFWWR
TAF
KWWR 210528Z 2106/2206 22006KT P6SM SCT050 BKN150
     FM210800 36006KT P6SM SCT035 BKN100
     FM211500 04013KT P6SM SCT040
     FM220000 08006KT P6SM SCT250=

USA.gov is the U.S. government's official web portal to all federal, state and local government web resources and services.